Location: Newark
(25.4297°S, 49.2719°W)
Time: 12:40:12
(UTC+00:00)

Vanguard 1 Rocket - Pass Details

Date: 21 November 2019
Orbit: 650 x 4226 km, 34.3° (Epoch: 15 December)

Event Time Altitude Azimuth Distance (km) Brightness Sun altitude
Rises 01:08:54 0° 247° (WSW) 8,001 12.9 -37.0°
Reaches altitude 10° 01:15:39 10° 254° (WSW) 6,520 12.2 -37.8°
Maximum altitude 01:31:40 35° 311° (NW) 3,302 10.0 -39.6°
Enters shadow 01:32:12 35° 315° (NW) 3,250 9.9 -39.7°
Drops below altitude 10° 01:40:53 10° 13° (NNE) 3,750 - -40.6°
Sets 01:43:38 0° 23° (NNE) 4,366 - -40.8°
